Time,TemperatureF,DewpointF,PressureIn,WindDirection,WindDirectionDegrees,WindSpeedMPH,WindSpeedGustMPH,Humidity,HourlyPrecipIn,Conditions,Clouds,dailyrainin,SoftwareType,DateUTC
2013-02-09 00:00:00,20.2,17.0,29.92,NNE,21,0.0,4.0,87,0.00,,,0.00,Wunderground v.1.15,2013-02-09 05:00:00,
2013-02-09 00:05:00,20.2,17.2,29.92,NNE,21,0.0,4.0,88,0.00,,,0.00,Wunderground v.1.15,2013-02-09 05:05:00,
2013-02-09 00:10:00,20.2,17.2,29.93,NNE,21,0.0,4.0,88,0.00,,,0.00,Wunderground v.1.15,2013-02-09 05:10:00,
2013-02-09 00:20:00,20.3,17.3,29.93,North,3,1.0,1.0,88,0.00,,,0.00,Wunderground v.1.15,2013-02-09 05:20:00,
2013-02-09 00:25:00,20.3,17.3,29.94,North,3,0.0,4.0,88,0.00,,,0.00,Wunderground v.1.15,2013-02-09 05:25:00,
2013-02-09 00:30:00,20.3,17.3,29.94,North,3,0.0,4.0,88,0.00,,,0.00,Wunderground v.1.15,2013-02-09 05:30:00,
2013-02-09 00:35:00,20.3,17.3,29.94,North,3,0.0,4.0,88,0.00,,,0.00,Wunderground v.1.15,2013-02-09 05:35:00,
2013-02-09 00:40:00,20.3,17.3,29.94,North,3,0.0,4.0,88,0.00,,,0.00,Wunderground v.1.15,2013-02-09 05:40:00,
2013-02-09 00:45:00,20.3,17.3,29.94,North,3,0.0,4.0,88,0.00,,,0.00,Wunderground v.1.15,2013-02-09 05:45:00,
2013-02-09 00:50:00,20.3,17.3,29.94,North,3,0.0,4.0,88,0.00,,,0.00,Wunderground v.1.15,2013-02-09 05:50:00,
2013-02-09 00:55:00,20.5,17.5,29.94,ESE,104,0.0,4.0,88,0.00,,,0.00,Wunderground v.1.15,2013-02-09 05:55:00,
2013-02-09 01:00:00,20.5,17.5,29.94,ESE,103,0.0,4.0,88,0.00,,,0.00,Wunderground v.1.15,2013-02-09 06:00:00,
2013-02-09 01:05:00,20.5,17.5,29.94,ESE,103,0.0,4.0,88,0.00,,,0.00,Wunderground v.1.15,2013-02-09 06:05:00,
2013-02-09 01:10:00,20.5,17.5,29.95,ESE,103,0.0,4.0,88,0.00,,,0.00,Wunderground v.1.15,2013-02-09 06:10:00,
2013-02-09 01:15:00,20.5,17.5,29.95,ESE,103,0.0,4.0,88,0.00,,,0.00,Wunderground v.1.15,2013-02-09 06:15:00,
2013-02-09 01:20:00,20.5,17.5,29.95,ESE,103,0.0,4.0,88,0.00,,,0.00,Wunderground v.1.15,2013-02-09 06:20:00,
2013-02-09 01:25:00,20.5,17.5,29.95,ESE,103,0.0,4.0,88,0.00,,,0.00,Wunderground v.1.15,2013-02-09 06:25:00,
2013-02-09 01:30:00,20.5,17.5,29.95,ESE,103,0.0,4.0,88,0.00,,,0.00,Wunderground v.1.15,2013-02-09 06:30:00,
2013-02-09 01:35:00,20.5,17.5,29.95,ESE,103,0.0,4.0,88,0.00,,,0.00,Wunderground v.1.15,2013-02-09 06:35:00,
2013-02-09 01:40:00,20.5,17.5,29.95,NE,55,0.0,4.0,88,0.00,,,0.00,Wunderground v.1.15,2013-02-09 06:40:00,
2013-02-09 01:45:00,20.3,17.3,29.95,NE,55,0.0,4.0,88,0.00,,,0.00,Wunderground v.1.15,2013-02-09 06:45:00,
2013-02-09 01:50:00,20.3,17.3,29.95,NE,55,0.0,4.0,88,0.00,,,0.00,Wunderground v.1.15,2013-02-09 06:50:00,
2013-02-09 02:00:00,20.3,17.6,29.95,North,359,0.0,4.0,89,0.00,,,0.00,Wunderground v.1.15,2013-02-09 07:00:00,
2013-02-09 02:05:00,20.2,17.2,29.95,NNE,25,0.0,4.0,88,0.00,,,0.00,Wunderground v.1.15,2013-02-09 07:05:00,
2013-02-09 02:10:00,20.2,17.2,29.95,NNW,330,1.0,1.0,88,0.00,,,0.00,Wunderground v.1.15,2013-02-09 07:10:00,
2013-02-09 02:15:00,19.9,16.9,29.95,NNE,14,1.0,4.0,88,0.00,,,0.00,Wunderground v.1.15,2013-02-09 07:15:00,
2013-02-09 02:20:00,19.7,16.7,29.95,West,268,1.0,4.0,88,0.00,,,0.00,Wunderground v.1.15,2013-02-09 07:20:00,
2013-02-09 02:25:00,19.5,16.5,29.95,NNE,14,1.0,4.0,88,0.00,,,0.00,Wunderground v.1.15,2013-02-09 07:25:00,
2013-02-09 02:30:00,19.4,16.2,29.95,NNE,32,1.0,4.0,87,0.00,,,0.00,Wunderground v.1.15,2013-02-09 07:30:00,
2013-02-09 02:35:00,19.2,16.0,29.95,North,0,1.0,4.0,87,0.00,,,0.00,Wunderground v.1.15,2013-02-09 07:35:00,
2013-02-09 02:40:00,18.9,15.7,29.96,North,8,1.0,4.0,87,0.00,,,0.00,Wunderground v.1.15,2013-02-09 07:40:00,
2013-02-09 02:45:00,18.8,15.6,29.96,NW,323,2.0,4.0,87,0.00,,,0.00,Wunderground v.1.15,2013-02-09 07:45:00,
2013-02-09 02:50:00,18.6,15.4,29.96,NNW,335,1.0,4.0,87,0.00,,,0.00,Wunderground v.1.15,2013-02-09 07:50:00,
2013-02-09 02:55:00,18.3,14.8,29.97,NNW,339,2.0,4.0,86,0.00,,,0.00,Wunderground v.1.15,2013-02-09 07:55:00,
2013-02-09 03:05:00,18.0,14.5,29.97,NW,311,2.0,3.0,86,0.00,,,0.00,Wunderground v.1.15,2013-02-09 08:05:00,
2013-02-09 03:10:00,17.8,14.3,29.97,NNE,16,2.0,2.0,86,0.00,,,0.00,Wunderground v.1.15,2013-02-09 08:10:00,
2013-02-09 03:15:00,17.7,14.0,29.97,NW,319,2.0,6.0,85,0.00,,,0.00,Wunderground v.1.15,2013-02-09 08:15:00,
2013-02-09 03:20:00,17.3,13.6,29.97,WNW,292,3.0,6.0,85,0.00,,,0.00,Wunderground v.1.15,2013-02-09 08:20:00,
2013-02-09 03:25:00,17.3,13.6,29.97,WNW,282,3.0,11.0,85,0.00,,,0.00,Wunderground v.1.15,2013-02-09 08:25:00,
2013-02-09 03:30:00,17.2,13.5,29.97,NW,325,2.0,2.0,85,0.00,,,0.00,Wunderground v.1.15,2013-02-09 08:30:00,
2013-02-09 03:35:00,17.0,13.5,29.97,NW,311,2.0,3.0,86,0.00,,,0.00,Wunderground v.1.15,2013-02-09 08:35:00,
2013-02-09 03:40:00,16.9,13.4,29.97,North,354,2.0,4.0,86,0.00,,,0.00,Wunderground v.1.15,2013-02-09 08:40:00,
2013-02-09 03:45:00,16.5,13.0,29.97,NNW,343,4.0,4.0,86,0.00,,,0.00,Wunderground v.1.15,2013-02-09 08:45:00,
2013-02-09 03:50:00,16.4,12.9,29.97,NW,311,3.0,11.0,86,0.00,,,0.00,Wunderground v.1.15,2013-02-09 08:50:00,
2013-02-09 03:55:00,16.1,12.7,29.98,East,86,3.0,11.0,86,0.00,,,0.00,Wunderground v.1.15,2013-02-09 08:55:00,
2013-02-09 04:00:00,15.9,12.5,29.98,NNW,328,3.0,3.0,86,0.00,,,0.00,Wunderground v.1.15,2013-02-09 09:00:00,
2013-02-09 04:05:00,15.7,12.3,29.98,NW,312,2.0,4.0,86,0.00,,,0.00,Wunderground v.1.15,2013-02-09 09:05:00,
2013-02-09 04:10:00,15.6,12.2,29.99,NNW,344,3.0,3.0,86,0.00,,,0.00,Wunderground v.1.15,2013-02-09 09:10:00,
2013-02-09 04:15:00,15.4,12.0,29.99,NNW,335,2.0,4.0,86,0.00,,,0.00,Wunderground v.1.15,2013-02-09 09:15:00,
2013-02-09 04:20:00,15.2,11.8,29.99,NNW,335,2.0,2.0,86,0.00,,,0.00,Wunderground v.1.15,2013-02-09 09:20:00,
2013-02-09 04:25:00,15.1,11.7,29.99,North,359,2.0,4.0,86,0.00,,,0.00,Wunderground v.1.15,2013-02-09 09:25:00,
2013-02-09 04:30:00,14.9,11.5,29.99,North,359,3.0,4.0,86,0.00,,,0.00,Wunderground v.1.15,2013-02-09 09:30:00,
2013-02-09 04:35:00,14.8,11.4,29.99,North,1,3.0,4.0,86,0.00,,,0.00,Wunderground v.1.15,2013-02-09 09:35:00,
2013-02-09 04:40:00,14.4,11.0,29.99,North,352,2.0,4.0,86,0.00,,,0.00,Wunderground v.1.15,2013-02-09 09:40:00,
2013-02-09 04:45:00,14.3,10.9,29.99,NW,316,2.0,4.0,86,0.00,,,0.00,Wunderground v.1.15,2013-02-09 09:45:00,
2013-02-09 04:50:00,14.3,10.9,29.99,NNW,332,2.0,2.0,86,0.00,,,0.00,Wunderground v.1.15,2013-02-09 09:50:00,
2013-02-09 04:55:00,14.1,10.7,30.00,NNW,340,1.0,4.0,86,0.00,,,0.00,Wunderground v.1.15,2013-02-09 09:55:00,
2013-02-09 05:00:00,14.1,10.4,30.00,North,8,1.0,4.0,85,0.00,,,0.00,Wunderground v.1.15,2013-02-09 10:00:00,
2013-02-09 05:05:00,14.0,10.3,30.00,NNE,27,2.0,4.0,85,0.00,,,0.00,Wunderground v.1.15,2013-02-09 10:05:00,
2013-02-09 05:10:00,13.8,10.1,30.01,North,8,3.0,4.0,85,0.00,,,0.00,Wunderground v.1.15,2013-02-09 10:10:00,
2013-02-09 05:15:00,13.6,9.9,30.01,North,7,3.0,4.0,85,0.00,,,0.00,Wunderground v.1.15,2013-02-09 10:15:00,
2013-02-09 05:20:00,13.6,9.9,30.01,NNE,13,2.0,4.0,85,0.00,,,0.00,Wunderground v.1.15,2013-02-09 10:20:00,
2013-02-09 05:25:00,13.6,9.9,30.02,NNW,339,2.0,4.0,85,0.00,,,0.00,Wunderground v.1.15,2013-02-09 10:25:00,
2013-02-09 05:35:00,13.5,9.6,30.02,NE,35,1.0,4.0,84,0.00,,,0.00,Wunderground v.1.15,2013-02-09 10:35:00,
2013-02-09 05:40:00,13.3,9.4,30.02,West,270,3.0,5.0,84,0.00,,,0.00,Wunderground v.1.15,2013-02-09 10:40:00,
2013-02-09 05:45:00,13.1,9.2,30.02,NNE,23,2.0,5.0,84,0.00,,,0.00,Wunderground v.1.15,2013-02-09 10:45:00,
2013-02-09 05:50:00,13.1,8.9,30.02,NW,311,2.0,10.0,83,0.00,,,0.00,Wunderground v.1.15,2013-02-09 10:50:00,
2013-02-09 05:55:00,12.9,8.7,30.03,North,0,3.0,10.0,83,0.00,,,0.00,Wunderground v.1.15,2013-02-09 10:55:00,
2013-02-09 06:00:00,12.8,8.6,30.03,NNW,336,4.0,4.0,83,0.00,,,0.00,Wunderground v.1.15,2013-02-09 11:00:00,
2013-02-09 06:05:00,12.8,8.6,30.03,NW,326,3.0,4.0,83,0.00,,,0.00,Wunderground v.1.15,2013-02-09 11:05:00,
2013-02-09 06:10:00,12.6,8.1,30.04,NW,313,2.0,4.0,82,0.00,,,0.00,Wunderground v.1.15,2013-02-09 11:10:00,
2013-02-09 06:15:00,12.4,8.0,30.04,WNW,301,3.0,4.0,82,0.00,,,0.00,Wunderground v.1.15,2013-02-09 11:15:00,
2013-02-09 06:20:00,12.3,7.9,30.04,NE,34,3.0,4.0,82,0.00,,,0.00,Wunderground v.1.15,2013-02-09 11:20:00,
2013-02-09 06:25:00,12.3,7.6,30.05,NNE,16,3.0,4.0,81,0.00,,,0.00,Wunderground v.1.15,2013-02-09 11:25:00,
2013-02-09 06:30:00,12.1,7.4,30.05,NW,306,4.0,5.0,81,0.00,,,0.00,Wunderground v.1.15,2013-02-09 11:30:00,
2013-02-09 06:35:00,12.1,7.4,30.05,WNW,294,4.0,14.0,81,0.00,,,0.00,Wunderground v.1.15,2013-02-09 11:35:00,
2013-02-09 06:40:00,11.9,7.2,30.06,NNW,343,4.0,4.0,81,0.00,,,0.00,Wunderground v.1.15,2013-02-09 11:40:00,
2013-02-09 06:45:00,11.7,7.0,30.06,WNW,292,4.0,4.0,81,0.00,,,0.00,Wunderground v.1.15,2013-02-09 11:45:00,
2013-02-09 06:50:00,11.6,6.6,30.06,NNW,330,3.0,3.0,80,0.00,,,0.00,Wunderground v.1.15,2013-02-09 11:50:00,
2013-02-09 06:55:00,11.6,6.6,30.07,NE,47,4.0,4.0,80,0.00,,,0.00,Wunderground v.1.15,2013-02-09 11:55:00,
2013-02-09 07:00:00,11.4,6.4,30.07,North,11,3.0,3.0,80,0.00,,,0.00,Wunderground v.1.15,2013-02-09 12:00:00,
2013-02-09 07:05:00,11.2,6.2,30.07,NW,320,3.0,4.0,80,0.00,,,0.00,Wunderground v.1.15,2013-02-09 12:05:00,
2013-02-09 07:10:00,11.2,6.2,30.08,NW,311,3.0,4.0,80,0.00,,,0.00,Wunderground v.1.15,2013-02-09 12:10:00,
2013-02-09 07:15:00,11.1,6.1,30.08,NNE,20,3.0,4.0,80,0.00,,,0.00,Wunderground v.1.15,2013-02-09 12:15:00,
2013-02-09 07:20:00,11.1,6.1,30.08,NW,312,3.0,4.0,80,0.00,,,0.00,Wunderground v.1.15,2013-02-09 12:20:00,
2013-02-09 07:25:00,10.9,5.7,30.10,NW,305,3.0,4.0,79,0.00,,,0.00,Wunderground v.1.15,2013-02-09 12:25:00,
2013-02-09 07:35:00,10.9,5.7,30.10,NNW,343,2.0,4.0,79,0.00,,,0.00,Wunderground v.1.15,2013-02-09 12:35:00,
2013-02-09 07:40:00,10.9,5.7,30.11,NNW,332,1.0,1.0,79,0.00,,,0.00,Wunderground v.1.15,2013-02-09 12:40:00,
2013-02-09 07:45:00,10.7,5.5,30.11,ENE,73,0.0,4.0,79,0.00,,,0.00,Wunderground v.1.15,2013-02-09 12:45:00,
2013-02-09 07:50:00,10.7,5.5,30.11,ENE,75,0.0,4.0,79,0.00,,,0.00,Wunderground v.1.15,2013-02-09 12:50:00,
2013-02-09 07:55:00,10.7,5.5,30.13,NNW,342,0.0,4.0,79,0.00,,,0.00,Wunderground v.1.15,2013-02-09 12:55:00,
2013-02-09 08:00:00,10.5,5.3,30.13,WNW,302,0.0,4.0,79,0.00,,,0.00,Wunderground v.1.15,2013-02-09 13:00:00,
2013-02-09 08:10:00,10.4,4.6,30.14,North,0,2.0,2.0,77,0.00,,,0.00,Wunderground v.1.15,2013-02-09 13:10:00,
2013-02-09 08:15:00,10.4,4.6,30.14,ENE,71,1.0,4.0,77,0.00,,,0.00,Wunderground v.1.15,2013-02-09 13:15:00,
2013-02-09 08:20:00,10.4,4.6,30.14,NW,312,1.0,1.0,77,0.00,,,0.00,Wunderground v.1.15,2013-02-09 13:20:00,
2013-02-09 08:25:00,10.4,4.6,30.14,NE,41,0.0,4.0,77,0.00,,,0.00,Wunderground v.1.15,2013-02-09 13:25:00,
2013-02-09 08:30:00,10.5,4.7,30.14,NE,45,0.0,4.0,77,0.00,,,0.00,Wunderground v.1.15,2013-02-09 13:30:00,
2013-02-09 08:35:00,10.5,4.7,30.14,NNE,18,1.0,4.0,77,0.00,,,0.00,Wunderground v.1.15,2013-02-09 13:35:00,
2013-02-09 08:40:00,10.5,4.7,30.15,NNE,18,1.0,4.0,77,0.00,,,0.00,Wunderground v.1.15,2013-02-09 13:40:00,
2013-02-09 08:45:00,10.5,4.4,30.15,North,10,1.0,4.0,76,0.00,,,0.00,Wunderground v.1.15,2013-02-09 13:45:00,
2013-02-09 08:50:00,10.7,4.6,30.15,NNW,340,1.0,4.0,76,0.00,,,0.00,Wunderground v.1.15,2013-02-09 13:50:00,
2013-02-09 08:55:00,10.9,4.8,30.16,NNE,32,1.0,4.0,76,0.00,,,0.00,Wunderground v.1.15,2013-02-09 13:55:00,
2013-02-09 09:05:00,10.9,4.2,30.16,North,0,2.0,10.0,74,0.00,,,0.00,Wunderground v.1.15,2013-02-09 14:05:00,
2013-02-09 09:10:00,11.1,4.4,30.17,North,359,1.0,1.0,74,0.00,,,0.00,Wunderground v.1.15,2013-02-09 14:10:00,
2013-02-09 09:20:00,11.2,3.9,30.17,NNW,328,1.0,1.0,72,0.00,,,0.00,Wunderground v.1.15,2013-02-09 14:20:00,
2013-02-09 09:25:00,11.6,4.6,30.17,North,350,0.0,4.0,73,0.00,,,0.00,Wunderground v.1.15,2013-02-09 14:25:00,
2013-02-09 09:30:00,11.9,4.3,30.17,East,83,1.0,4.0,71,0.00,,,0.00,Wunderground v.1.15,2013-02-09 14:30:00,
2013-02-09 09:35:00,11.9,4.0,30.17,NW,304,1.0,4.0,70,0.00,,,0.00,Wunderground v.1.15,2013-02-09 14:35:00,
2013-02-09 09:40:00,12.1,3.9,30.17,NNE,30,2.0,2.0,69,0.00,,,0.00,Wunderground v.1.15,2013-02-09 14:40:00,
2013-02-09 09:45:00,12.3,4.1,30.17,WNW,302,1.0,4.0,69,0.00,,,0.00,Wunderground v.1.15,2013-02-09 14:45:00,
2013-02-09 09:50:00,13.1,5.1,30.17,NE,41,1.0,4.0,70,0.00,,,0.00,Wunderground v.1.15,2013-02-09 14:50:00,
2013-02-09 09:55:00,13.5,4.9,30.18,NNW,343,0.0,4.0,68,0.00,,,0.00,Wunderground v.1.15,2013-02-09 14:55:00,
2013-02-09 10:00:00,14.0,5.4,30.18,ENE,69,1.0,1.0,68,0.00,,,0.00,Wunderground v.1.15,2013-02-09 15:00:00,
2013-02-09 10:05:00,14.6,6.3,30.18,NE,34,0.0,4.0,69,0.00,,,0.00,Wunderground v.1.15,2013-02-09 15:05:00,
2013-02-09 10:10:00,15.1,6.1,30.18,North,10,1.0,4.0,67,0.00,,,0.00,Wunderground v.1.15,2013-02-09 15:10:00,
2013-02-09 10:15:00,15.1,5.8,30.18,NW,312,1.0,6.0,66,0.00,,,0.00,Wunderground v.1.15,2013-02-09 15:15:00,
2013-02-09 10:20:00,14.4,4.1,30.18,West,274,3.0,3.0,63,0.00,,,0.00,Wunderground v.1.15,2013-02-09 15:20:00,
2013-02-09 10:25:00,14.3,4.0,30.19,SSW,200,3.0,4.0,63,0.00,,,0.00,Wunderground v.1.15,2013-02-09 15:25:00,
2013-02-09 10:30:00,14.1,3.8,30.19,NW,308,3.0,3.0,63,0.00,,,0.00,Wunderground v.1.15,2013-02-09 15:30:00,
2013-02-09 10:35:00,13.6,2.6,30.19,NW,320,4.0,4.0,61,0.00,,,0.00,Wunderground v.1.15,2013-02-09 15:35:00,
2013-02-09 10:40:00,13.3,2.7,30.20,West,281,4.0,4.0,62,0.00,,,0.00,Wunderground v.1.15,2013-02-09 15:40:00,
2013-02-09 10:45:00,12.8,1.9,30.20,NW,305,5.0,5.0,61,0.00,,,0.00,Wunderground v.1.15,2013-02-09 15:45:00,
2013-02-09 10:50:00,12.6,2.7,30.20,NW,309,4.0,4.0,64,0.00,,,0.00,Wunderground v.1.15,2013-02-09 15:50:00,
2013-02-09 10:55:00,12.8,2.6,30.21,NW,318,3.0,5.0,63,0.00,,,0.00,Wunderground v.1.15,2013-02-09 15:55:00,
2013-02-09 11:00:00,12.3,2.1,30.21,NW,308,5.0,9.0,63,0.00,,,0.00,Wunderground v.1.15,2013-02-09 16:00:00,
2013-02-09 11:05:00,12.1,1.9,30.21,West,267,6.0,11.0,63,0.00,,,0.00,Wunderground v.1.15,2013-02-09 16:05:00,
2013-02-09 11:10:00,11.9,1.7,30.22,NW,306,6.0,6.0,63,0.00,,,0.00,Wunderground v.1.15,2013-02-09 16:10:00,
2013-02-09 11:15:00,11.9,1.4,30.22,WSW,253,5.0,10.0,62,0.00,,,0.00,Wunderground v.1.15,2013-02-09 16:15:00,
2013-02-09 11:20:00,11.7,1.5,30.22,West,280,5.0,5.0,63,0.00,,,0.00,Wunderground v.1.15,2013-02-09 16:20:00,
2013-02-09 11:30:00,12.1,2.2,30.22,NNE,28,2.0,4.0,64,0.00,,,0.00,Wunderground v.1.15,2013-02-09 16:30:00,
2013-02-09 11:35:00,12.1,2.6,30.22,WNW,298,2.0,6.0,65,0.00,,,0.00,Wunderground v.1.15,2013-02-09 16:35:00,
2013-02-09 11:40:00,12.1,1.9,30.22,North,0,3.0,5.0,63,0.00,,,0.00,Wunderground v.1.15,2013-02-09 16:40:00,
2013-02-09 11:45:00,12.3,2.1,30.22,WNW,294,3.0,6.0,63,0.00,,,0.00,Wunderground v.1.15,2013-02-09 16:45:00,
2013-02-09 11:50:00,12.4,2.9,30.22,WSW,239,2.0,2.0,65,0.00,,,0.00,Wunderground v.1.15,2013-02-09 16:50:00,
2013-02-09 11:55:00,12.6,2.7,30.21,NNW,337,2.0,4.0,64,0.00,,,0.00,Wunderground v.1.15,2013-02-09 16:55:00,
2013-02-09 12:00:00,12.4,2.5,30.21,NE,34,2.0,2.0,64,0.00,,,0.00,Wunderground v.1.15,2013-02-09 17:00:00,
2013-02-09 12:05:00,12.6,3.1,30.21,WNW,301,2.0,5.0,65,0.00,,,0.00,Wunderground v.1.15,2013-02-09 17:05:00,
2013-02-09 12:10:00,12.6,3.1,30.22,SW,215,2.0,4.0,65,0.00,,,0.00,Wunderground v.1.15,2013-02-09 17:10:00,
2013-02-09 12:15:00,12.8,2.6,30.22,NW,318,2.0,4.0,63,0.00,,,0.00,Wunderground v.1.15,2013-02-09 17:15:00,
2013-02-09 12:20:00,13.1,2.5,30.22,WNW,292,3.0,3.0,62,0.00,,,0.00,Wunderground v.1.15,2013-02-09 17:20:00,
2013-02-09 12:25:00,14.1,3.5,30.21,NW,312,3.0,7.0,62,0.00,,,0.00,Wunderground v.1.15,2013-02-09 17:25:00,
2013-02-09 12:30:00,14.6,3.2,30.21,NW,305,4.0,4.0,60,0.00,,,0.00,Wunderground v.1.15,2013-02-09 17:30:00,
2013-02-09 12:35:00,15.2,3.8,30.21,NNE,25,4.0,4.0,60,0.00,,,0.00,Wunderground v.1.15,2013-02-09 17:35:00,
2013-02-09 12:40:00,15.4,3.6,30.21,WNW,299,3.0,5.0,59,0.00,,,0.00,Wunderground v.1.15,2013-02-09 17:40:00,
2013-02-09 12:45:00,14.9,3.1,30.21,WNW,291,4.0,5.0,59,0.00,,,0.00,Wunderground v.1.15,2013-02-09 17:45:00,
2013-02-09 12:50:00,15.2,3.8,30.21,NW,323,4.0,4.0,60,0.00,,,0.00,Wunderground v.1.15,2013-02-09 17:50:00,
2013-02-09 12:55:00,15.1,3.7,30.22,ESE,117,3.0,4.0,60,0.00,,,0.00,Wunderground v.1.15,2013-02-09 17:55:00,
2013-02-09 13:00:00,14.8,3.4,30.22,WNW,296,4.0,6.0,60,0.00,,,0.00,Wunderground v.1.15,2013-02-09 18:00:00,
2013-02-09 13:05:00,14.3,2.9,30.22,SW,222,6.0,6.0,60,0.00,,,0.00,Wunderground v.1.15,2013-02-09 18:05:00,
2013-02-09 13:10:00,14.0,3.0,30.22,SW,230,8.0,8.0,61,0.00,,,0.00,Wunderground v.1.15,2013-02-09 18:10:00,
2013-02-09 13:15:00,13.8,2.8,30.22,NNW,329,8.0,8.0,61,0.00,,,0.00,Wunderground v.1.15,2013-02-09 18:15:00,
2013-02-09 13:20:00,13.8,2.8,30.22,WNW,301,6.0,14.0,61,0.00,,,0.00,Wunderground v.1.15,2013-02-09 18:20:00,
2013-02-09 13:25:00,13.8,2.8,30.23,NW,322,6.0,14.0,61,0.00,,,0.00,Wunderground v.1.15,2013-02-09 18:25:00,
2013-02-09 13:30:00,14.1,3.1,30.23,WNW,298,5.0,5.0,61,0.00,,,0.00,Wunderground v.1.15,2013-02-09 18:30:00,
2013-02-09 13:35:00,14.3,3.3,30.23,WNW,292,4.0,6.0,61,0.00,,,0.00,Wunderground v.1.15,2013-02-09 18:35:00,
2013-02-09 13:40:00,14.8,3.8,30.24,West,274,3.0,3.0,61,0.00,,,0.00,Wunderground v.1.15,2013-02-09 18:40:00,
2013-02-09 13:45:00,15.2,3.4,30.24,West,270,3.0,10.0,59,0.00,,,0.00,Wunderground v.1.15,2013-02-09 18:45:00,
2013-02-09 13:50:00,15.2,3.4,30.24,WNW,287,5.0,5.0,59,0.00,,,0.00,Wunderground v.1.15,2013-02-09 18:50:00,
2013-02-09 13:55:00,15.6,3.8,30.24,NW,304,5.0,5.0,59,0.00,,,0.00,Wunderground v.1.15,2013-02-09 18:55:00,
2013-02-09 14:00:00,15.9,4.1,30.24,WNW,287,3.0,4.0,59,0.00,,,0.00,Wunderground v.1.15,2013-02-09 19:00:00,
2013-02-09 14:05:00,15.9,3.3,30.24,NNE,20,3.0,4.0,57,0.00,,,0.00,Wunderground v.1.15,2013-02-09 19:05:00,
2013-02-09 14:10:00,15.4,2.5,30.25,NW,306,6.0,8.0,56,0.00,,,0.00,Wunderground v.1.15,2013-02-09 19:10:00,
2013-02-09 14:15:00,15.4,3.2,30.25,North,359,6.0,8.0,58,0.00,,,0.00,Wunderground v.1.15,2013-02-09 19:15:00,
2013-02-09 14:20:00,15.4,2.1,30.25,SW,230,6.0,6.0,55,0.00,,,0.00,Wunderground v.1.15,2013-02-09 19:20:00,
2013-02-09 14:25:00,15.7,2.4,30.24,NNE,23,9.0,9.0,55,0.00,,,0.00,Wunderground v.1.15,2013-02-09 19:25:00,
2013-02-09 14:30:00,16.5,2.3,30.24,WNW,287,7.0,7.0,53,0.00,,,0.00,Wunderground v.1.15,2013-02-09 19:30:00,
2013-02-09 14:35:00,16.9,2.7,30.24,NW,315,6.0,8.0,53,0.00,,,0.00,Wunderground v.1.15,2013-02-09 19:35:00,
2013-02-09 14:40:00,17.2,3.0,30.24,NW,313,5.0,5.0,53,0.00,,,0.00,Wunderground v.1.15,2013-02-09 19:40:00,
2013-02-09 14:45:00,17.2,2.6,30.24,WNW,302,5.0,5.0,52,0.00,,,0.00,Wunderground v.1.15,2013-02-09 19:45:00,
2013-02-09 14:50:00,17.7,3.4,30.24,NW,320,5.0,5.0,53,0.00,,,0.00,Wunderground v.1.15,2013-02-09 19:50:00,
2013-02-09 14:55:00,17.5,2.4,30.25,WNW,285,5.0,8.0,51,0.00,,,0.00,Wunderground v.1.15,2013-02-09 19:55:00,
2013-02-09 15:00:00,17.3,2.2,30.25,WNW,299,6.0,6.0,51,0.00,,,0.00,Wunderground v.1.15,2013-02-09 20:00:00,
2013-02-09 15:05:00,17.7,2.6,30.25,NW,304,5.0,6.0,51,0.00,,,0.00,Wunderground v.1.15,2013-02-09 20:05:00,
2013-02-09 15:10:00,17.7,2.2,30.26,NW,315,4.0,4.0,50,0.00,,,0.00,Wunderground v.1.15,2013-02-09 20:10:00,
2013-02-09 15:20:00,17.8,1.8,30.26,WNW,301,4.0,4.0,49,0.00,,,0.00,Wunderground v.1.15,2013-02-09 20:20:00,
2013-02-09 15:25:00,17.5,1.1,30.26,WNW,302,5.0,5.0,48,0.00,,,0.00,Wunderground v.1.15,2013-02-09 20:25:00,
2013-02-09 15:30:00,17.8,1.4,30.26,NNW,336,4.0,4.0,48,0.00,,,0.00,Wunderground v.1.15,2013-02-09 20:30:00,
2013-02-09 15:35:00,18.1,1.2,30.26,WNW,302,2.0,4.0,47,0.00,,,0.00,Wunderground v.1.15,2013-02-09 20:35:00,
2013-02-09 15:40:00,18.1,0.8,30.26,West,278,3.0,3.0,46,0.00,,,0.00,Wunderground v.1.15,2013-02-09 20:40:00,
2013-02-09 15:45:00,17.8,0.5,30.26,North,350,4.0,4.0,46,0.00,,,0.00,Wunderground v.1.15,2013-02-09 20:45:00,
2013-02-09 15:50:00,17.8,0.0,30.26,West,280,3.0,7.0,45,0.00,,,0.00,Wunderground v.1.15,2013-02-09 20:50:00,
2013-02-09 15:55:00,18.0,0.7,30.26,WNW,288,3.0,7.0,46,0.00,,,0.00,Wunderground v.1.15,2013-02-09 20:55:00,
2013-02-09 16:00:00,18.1,1.2,30.26,NNW,335,2.0,2.0,47,0.00,,,0.00,Wunderground v.1.15,2013-02-09 21:00:00,
2013-02-09 16:05:00,18.4,1.5,30.26,North,352,1.0,5.0,47,0.00,,,0.00,Wunderground v.1.15,2013-02-09 21:05:00,
2013-02-09 16:10:00,18.1,0.8,30.27,NW,305,2.0,4.0,46,0.00,,,0.00,Wunderground v.1.15,2013-02-09 21:10:00,
2013-02-09 16:15:00,17.3,0.0,30.27,South,176,3.0,4.0,46,0.00,,,0.00,Wunderground v.1.15,2013-02-09 21:15:00,
2013-02-09 16:20:00,17.2,-0.1,30.27,NW,319,2.0,4.0,46,0.00,,,0.00,Wunderground v.1.15,2013-02-09 21:20:00,
2013-02-09 16:25:00,17.0,-0.3,30.28,WNW,292,2.0,4.0,46,0.00,,,0.00,Wunderground v.1.15,2013-02-09 21:25:00,
2013-02-09 16:30:00,16.9,-0.3,30.28,WNW,288,2.0,7.0,46,0.00,,,0.00,Wunderground v.1.15,2013-02-09 21:30:00,
2013-02-09 16:35:00,16.7,-0.1,30.28,NNW,332,2.0,7.0,47,0.00,,,0.00,Wunderground v.1.15,2013-02-09 21:35:00,
2013-02-09 16:40:00,16.2,-1.5,30.28,WNW,289,3.0,3.0,45,0.00,,,0.00,Wunderground v.1.15,2013-02-09 21:40:00,
2013-02-09 16:45:00,15.6,-1.1,30.28,West,272,2.0,4.0,47,0.00,,,0.00,Wunderground v.1.15,2013-02-09 21:45:00,
2013-02-09 16:50:00,15.2,-1.5,30.28,WNW,285,1.0,1.0,47,0.00,,,0.00,Wunderground v.1.15,2013-02-09 21:50:00,
2013-02-09 16:55:00,14.8,-1.4,30.29,SSE,164,1.0,2.0,48,0.00,,,0.00,Wunderground v.1.15,2013-02-09 21:55:00,
2013-02-09 17:00:00,14.6,-2.0,30.29,NW,312,1.0,1.0,47,0.00,,,0.00,Wunderground v.1.15,2013-02-09 22:00:00,
2013-02-09 17:05:00,14.4,-1.7,30.29,NW,308,1.0,4.0,48,0.00,,,0.00,Wunderground v.1.15,2013-02-09 22:05:00,
2013-02-09 17:10:00,14.1,-1.6,30.32,NNW,336,1.0,1.0,49,0.00,,,0.00,Wunderground v.1.15,2013-02-09 22:10:00,
2013-02-09 17:15:00,13.8,-1.9,30.32,NW,309,1.0,4.0,49,0.00,,,0.00,Wunderground v.1.15,2013-02-09 22:15:00,
2013-02-09 17:20:00,13.6,-2.1,30.32,WNW,302,1.0,1.0,49,0.00,,,0.00,Wunderground v.1.15,2013-02-09 22:20:00,
2013-02-09 17:25:00,13.6,-2.1,30.33,NW,304,1.0,5.0,49,0.00,,,0.00,Wunderground v.1.15,2013-02-09 22:25:00,
2013-02-09 17:30:00,13.3,-2.3,30.33,WNW,298,1.0,1.0,49,0.00,,,0.00,Wunderground v.1.15,2013-02-09 22:30:00,
2013-02-09 17:40:00,12.9,-2.7,30.34,NNW,330,1.0,11.0,49,0.00,,,0.00,Wunderground v.1.15,2013-02-09 22:40:00,
2013-02-09 17:45:00,13.1,-2.9,30.34,WNW,301,2.0,11.0,48,0.00,,,0.00,Wunderground v.1.15,2013-02-09 22:45:00,
2013-02-09 17:50:00,13.1,-2.9,30.34,WNW,292,2.0,2.0,48,0.00,,,0.00,Wunderground v.1.15,2013-02-09 22:50:00,
2013-02-09 17:55:00,13.1,-2.9,30.35,NW,311,1.0,4.0,48,0.00,,,0.00,Wunderground v.1.15,2013-02-09 22:55:00,
2013-02-09 18:00:00,12.9,-3.1,30.35,NNW,337,1.0,4.0,48,0.00,,,0.00,Wunderground v.1.15,2013-02-09 23:00:00,
2013-02-09 18:05:00,12.9,-3.1,30.35,West,277,1.0,4.0,48,0.00,,,0.00,Wunderground v.1.15,2013-02-09 23:05:00,
2013-02-09 18:10:00,12.8,-3.2,30.37,WNW,294,1.0,1.0,48,0.00,,,0.00,Wunderground v.1.15,2013-02-09 23:10:00,
2013-02-09 18:15:00,12.8,-3.2,30.37,East,97,1.0,4.0,48,0.00,,,0.00,Wunderground v.1.15,2013-02-09 23:15:00,
2013-02-09 18:20:00,12.8,-3.2,30.37,WSW,256,1.0,4.0,48,0.00,,,0.00,Wunderground v.1.15,2013-02-09 23:20:00,
2013-02-09 18:25:00,12.8,-3.7,30.38,North,349,3.0,4.0,47,0.00,,,0.00,Wunderground v.1.15,2013-02-09 23:25:00,
2013-02-09 18:30:00,12.6,-3.9,30.38,NE,48,2.0,2.0,47,0.00,,,0.00,Wunderground v.1.15,2013-02-09 23:30:00,
2013-02-09 18:35:00,12.4,-3.6,30.38,NNW,333,1.0,4.0,48,0.00,,,0.00,Wunderground v.1.15,2013-02-09 23:35:00,
2013-02-09 18:40:00,11.9,-3.6,30.39,NNW,333,0.0,4.0,49,0.00,,,0.00,Wunderground v.1.15,2013-02-09 23:40:00,
2013-02-09 18:45:00,11.7,-3.4,30.39,NNW,333,0.0,4.0,50,0.00,,,0.00,Wunderground v.1.15,2013-02-09 23:45:00,
2013-02-09 18:50:00,11.2,-3.9,30.39,NNW,333,0.0,4.0,50,0.00,,,0.00,Wunderground v.1.15,2013-02-09 23:50:00,
2013-02-09 18:55:00,11.1,-3.5,30.40,NNW,333,0.0,4.0,51,0.00,,,0.00,Wunderground v.1.15,2013-02-09 23:55:00,
2013-02-09 19:00:00,10.7,-3.9,30.40,North,0,0.0,4.0,51,0.00,,,0.00,Wunderground v.1.15,2013-02-10 00:00:00,
2013-02-09 19:05:00,10.2,-4.0,30.40,East,80,1.0,4.0,52,0.00,,,0.00,Wunderground v.1.15,2013-02-10 00:05:00,
2013-02-09 19:10:00,10.0,-3.8,30.41,East,80,0.0,4.0,53,0.00,,,0.00,Wunderground v.1.15,2013-02-10 00:10:00,
2013-02-09 19:15:00,9.5,-3.8,30.41,East,82,0.0,4.0,54,0.00,,,0.00,Wunderground v.1.15,2013-02-10 00:15:00,
2013-02-09 19:20:00,9.3,-4.0,30.41,ESE,114,0.0,8.0,54,0.00,,,0.00,Wunderground v.1.15,2013-02-10 00:20:00,
2013-02-09 19:25:00,10.5,-3.7,30.42,SE,126,1.0,8.0,52,0.00,,,0.00,Wunderground v.1.15,2013-02-10 00:25:00,
2013-02-09 19:30:00,10.7,-3.9,30.42,SSE,150,2.0,2.0,51,0.00,,,0.00,Wunderground v.1.15,2013-02-10 00:30:00,
2013-02-09 19:35:00,10.2,-4.0,30.42,SSE,150,1.0,4.0,52,0.00,,,0.00,Wunderground v.1.15,2013-02-10 00:35:00,
2013-02-09 19:45:00,9.7,-4.8,30.42,East,92,1.0,4.0,51,0.00,,,0.00,Wunderground v.1.15,2013-02-10 00:45:00,
2013-02-09 19:50:00,10.0,-4.2,30.42,East,95,2.0,2.0,52,0.00,,,0.00,Wunderground v.1.15,2013-02-10 00:50:00,
2013-02-09 20:00:00,10.4,-4.2,30.42,SSE,147,2.0,2.0,51,0.00,,,0.00,Wunderground v.1.15,2013-02-10 01:00:00,
2013-02-09 20:05:00,10.7,-3.9,30.42,East,83,1.0,4.0,51,0.00,,,0.00,Wunderground v.1.15,2013-02-10 01:05:00,
2013-02-09 20:10:00,11.2,-4.3,30.43,ENE,61,2.0,10.0,49,0.00,,,0.00,Wunderground v.1.15,2013-02-10 01:10:00,
2013-02-09 20:15:00,12.6,-3.9,30.43,SE,145,3.0,10.0,47,0.00,,,0.00,Wunderground v.1.15,2013-02-10 01:15:00,
2013-02-09 20:20:00,12.4,-4.0,30.43,East,83,3.0,3.0,47,0.00,,,0.00,Wunderground v.1.15,2013-02-10 01:20:00,
2013-02-09 20:25:00,12.1,-4.3,30.44,East,83,1.0,4.0,47,0.00,,,0.00,Wunderground v.1.15,2013-02-10 01:25:00,
2013-02-09 20:30:00,11.7,-4.2,30.44,SE,126,0.0,4.0,48,0.00,,,0.00,Wunderground v.1.15,2013-02-10 01:30:00,
2013-02-09 20:35:00,11.6,-4.3,30.44,East,85,1.0,4.0,48,0.00,,,0.00,Wunderground v.1.15,2013-02-10 01:35:00,
2013-02-09 20:40:00,11.4,-4.5,30.44,East,85,0.0,4.0,48,0.00,,,0.00,Wunderground v.1.15,2013-02-10 01:40:00,
2013-02-09 20:45:00,11.2,-4.3,30.44,East,85,0.0,4.0,49,0.00,,,0.00,Wunderground v.1.15,2013-02-10 01:45:00,
2013-02-09 20:50:00,11.6,-4.3,30.44,ENE,76,1.0,1.0,48,0.00,,,0.00,Wunderground v.1.15,2013-02-10 01:50:00,
2013-02-09 20:55:00,11.7,-5.1,30.44,ENE,71,1.0,4.0,46,0.00,,,0.00,Wunderground v.1.15,2013-02-10 01:55:00,
2013-02-09 21:00:00,11.6,-4.8,30.44,NNW,342,0.0,4.0,47,0.00,,,0.00,Wunderground v.1.15,2013-02-10 02:00:00,
2013-02-09 21:05:00,11.6,-4.3,30.44,ESE,117,1.0,6.0,48,0.00,,,0.00,Wunderground v.1.15,2013-02-10 02:05:00,
2013-02-09 21:10:00,12.4,-5.4,30.44,South,176,2.0,2.0,44,0.00,,,0.00,Wunderground v.1.15,2013-02-10 02:10:00,
2013-02-09 21:15:00,12.1,-5.2,30.44,North,0,1.0,4.0,45,0.00,,,0.00,Wunderground v.1.15,2013-02-10 02:15:00,
2013-02-09 21:20:00,11.9,-5.4,30.44,ENE,58,0.0,4.0,45,0.00,,,0.00,Wunderground v.1.15,2013-02-10 02:20:00,
2013-02-09 21:25:00,11.9,-5.4,30.45,ENE,58,0.0,4.0,45,0.00,,,0.00,Wunderground v.1.15,2013-02-10 02:25:00,
2013-02-09 21:30:00,12.8,-5.5,30.45,SE,130,2.0,2.0,43,0.00,,,0.00,Wunderground v.1.15,2013-02-10 02:30:00,
2013-02-09 21:35:00,12.6,-5.7,30.45,East,100,2.0,4.0,43,0.00,,,0.00,Wunderground v.1.15,2013-02-10 02:35:00,
2013-02-09 21:40:00,12.6,-5.2,30.45,SSE,150,1.0,1.0,44,0.00,,,0.00,Wunderground v.1.15,2013-02-10 02:40:00,
2013-02-09 21:45:00,12.3,-5.0,30.45,East,89,1.0,4.0,45,0.00,,,0.00,Wunderground v.1.15,2013-02-10 02:45:00,
2013-02-09 21:50:00,12.3,-5.0,30.45,SE,140,1.0,4.0,45,0.00,,,0.00,Wunderground v.1.15,2013-02-10 02:50:00,
2013-02-09 21:55:00,12.3,-5.0,30.45,SE,137,1.0,4.0,45,0.00,,,0.00,Wunderground v.1.15,2013-02-10 02:55:00,
2013-02-09 22:00:00,12.4,-4.9,30.45,SE,127,1.0,4.0,45,0.00,,,0.00,Wunderground v.1.15,2013-02-10 03:00:00,
2013-02-09 22:05:00,12.8,-5.0,30.45,East,89,1.0,4.0,44,0.00,,,0.00,Wunderground v.1.15,2013-02-10 03:05:00,
2013-02-09 22:10:00,12.8,-5.0,30.45,East,92,2.0,2.0,44,0.00,,,0.00,Wunderground v.1.15,2013-02-10 03:10:00,
2013-02-09 22:15:00,11.7,-5.6,30.45,ESE,120,1.0,4.0,45,0.00,,,0.00,Wunderground v.1.15,2013-02-10 03:15:00,
2013-02-09 22:20:00,11.7,-5.1,30.45,ESE,120,0.0,4.0,46,0.00,,,0.00,Wunderground v.1.15,2013-02-10 03:20:00,
2013-02-09 22:25:00,12.6,-5.2,30.47,ESE,116,1.0,4.0,44,0.00,,,0.00,Wunderground v.1.15,2013-02-10 03:25:00,
2013-02-09 22:30:00,12.8,-5.0,30.47,ENE,76,1.0,4.0,44,0.00,,,0.00,Wunderground v.1.15,2013-02-10 03:30:00,
2013-02-09 22:35:00,12.9,-5.0,30.47,ENE,62,1.0,4.0,44,0.00,,,0.00,Wunderground v.1.15,2013-02-10 03:35:00,
2013-02-09 22:40:00,12.9,-5.0,30.46,East,88,1.0,1.0,44,0.00,,,0.00,Wunderground v.1.15,2013-02-10 03:40:00,
2013-02-09 22:45:00,12.9,-5.0,30.46,North,6,1.0,4.0,44,0.00,,,0.00,Wunderground v.1.15,2013-02-10 03:45:00,
2013-02-09 22:50:00,12.9,-5.0,30.46,NNE,23,1.0,4.0,44,0.00,,,0.00,Wunderground v.1.15,2013-02-10 03:50:00,
2013-02-09 22:55:00,13.3,-5.1,30.46,NW,304,1.0,4.0,43,0.00,,,0.00,Wunderground v.1.15,2013-02-10 03:55:00,
2013-02-09 23:00:00,13.3,-5.1,30.46,NW,316,1.0,1.0,43,0.00,,,0.00,Wunderground v.1.15,2013-02-10 04:00:00,
2013-02-09 23:05:00,13.3,-5.1,30.46,NNE,27,1.0,4.0,43,0.00,,,0.00,Wunderground v.1.15,2013-02-10 04:05:00,
2013-02-09 23:10:00,13.1,-4.8,30.47,NE,37,1.0,1.0,44,0.00,,,0.00,Wunderground v.1.15,2013-02-10 04:10:00,
2013-02-09 23:15:00,12.9,-5.0,30.47,NNE,18,1.0,4.0,44,0.00,,,0.00,Wunderground v.1.15,2013-02-10 04:15:00,
2013-02-09 23:20:00,12.9,-5.0,30.47,NNE,14,1.0,4.0,44,0.00,,,0.00,Wunderground v.1.15,2013-02-10 04:20:00,
2013-02-09 23:25:00,13.1,-4.8,30.47,North,0,1.0,4.0,44,0.00,,,0.00,Wunderground v.1.15,2013-02-10 04:25:00,
2013-02-09 23:30:00,13.3,-4.6,30.47,NW,318,1.0,1.0,44,0.00,,,0.00,Wunderground v.1.15,2013-02-10 04:30:00,
2013-02-09 23:35:00,12.8,-4.6,30.47,NW,319,0.0,4.0,45,0.00,,,0.00,Wunderground v.1.15,2013-02-10 04:35:00,
2013-02-09 23:40:00,12.4,-4.5,30.47,ENE,71,0.0,4.0,46,0.00,,,0.00,Wunderground v.1.15,2013-02-10 04:40:00,
2013-02-09 23:45:00,11.6,-4.8,30.47,ESE,119,1.0,4.0,47,0.00,,,0.00,Wunderground v.1.15,2013-02-10 04:45:00,
2013-02-09 23:50:00,11.1,-4.8,30.47,SSE,147,1.0,1.0,48,0.00,,,0.00,Wunderground v.1.15,2013-02-10 04:50:00,
2013-02-09 23:55:00,10.4,-5.0,30.47,SSE,147,0.0,4.0,49,0.00,,,0.00,Wunderground v.1.15,2013-02-10 04:55:00,